Regional Weather Roundup
Issued by NWS

Home | Current Version | Previous Version | Text Only | Print | Product List | Glossary Off
Versions: 1 2 3 4 5 6 7 8 9 10 11 12 13 14 15 16 17 18 19 20 21 22 23 24 25 26 27 28 29 30 31 32 33 34 35 36 37 38 39 40 41 42 43 44 45 46 47 48 49 50

697
ASUS45 KCYS 161410
RWRWY

WYOMING REGIONAL WEATHER ROUNDUP
NATIONAL WEATHER SERVICE CHEYENNE WY
700 AM MST MON JAN 16 2017

NOTE:  "FAIR" INDICATES FEW OR NO CLOUDS BELOW 12,000 FEET
WITH NO SIGNIFICANT WEATHER AND/OR OBSTRUCTIONS TO VISIBILITY.

WYZ001-161500-
YELLOWSTONE NATIONAL PARK

CITY           SKY/WX    TMP DP  RH WIND       PRES   REMARKS
LK YELLOWSTONE   N/A    -21 -25  81 CALM      30.18R
W YELLOWSTONE  NOT AVBL

$$
WYZ002>013-054>058-071-098>099-161500-
NORTHERN WYOMING

CITY           SKY/WX    TMP DP  RH WIND       PRES   REMARKS
JACKSON        FAIR     -17 -20  83 NE7       30.23R WCI -33
CODY           FAIR      13   3  64 VRB5      30.15R WCI   5
GREYBULL       FAIR     -16 -22  74 CALM      30.24R
WORLAND        FAIR     -14 -16  91 CALM      30.20R
SHERIDAN       FAIR       8  -2  63 SW7       30.13R WCI  -3
BUFFALO        FAIR      24   3  40 CALM      30.11R
GILLETTE       FAIR      18   6  59 CALM      30.11S
HULETT         FAIR      19   5  53 S7        30.10S WCI  10
NEWCASTLE      FAIR      18   3  53 N16       30.09R WCI   3

$$
WYZ014>020-022>026-101>103-161500-
CENTRAL WYOMING

CITY           SKY/WX    TMP DP  RH WIND       PRES   REMARKS
BIG PINEY      MOCLDY   -26 -29  85 E7        30.16R FOG     WCI -44
PINEDALE       FAIR     -26 -35  62 W6        30.17R WCI -42
DUBOIS         NOT AVBL
LANDER         FAIR       3  -1  83 CALM      30.14R
RIVERTON       FOG       -8 -10  91 CALM      30.15R VSB 1/4
CASPER         FAIR       8   3  80 NW8       30.14R WCI  -4
DOUGLAS        MOCLDY    20  11  68 NW17      30.12R WCI   5

$$
WYZ021-027>030-104>119-161500-
SOUTHERN WYOMING

CITY           SKY/WX    TMP DP  RH WIND       PRES   REMARKS
EVANSTON       FAIR      -1  -7  75 E5        30.12S WCI -11
ROCK SPRINGS   FOG       -8 -11  86 SW6       30.14R VSB 1/4 WCI -21
RAWLINS        FAIR      -2  -9  72 CALM      30.09R
LARAMIE        CLOUDY    19  17  92 CALM      30.03R
CHEYENNE       CLOUDY    31  14  49 N17G26    30.00R WCI  19
TORRINGTON     CLOUDY    33  20  58 NW6       30.04R WCI  28

$$




USA.gov is the U.S. government's official web portal to all federal, state and local government web resources and services.